Overview Statistics Trail Chart Weather Telemetry Raw packets
 

This is the latest recevied weather packets stored in our database for station/object EA7OC-10. If no packets are shown the sender has not sent any weather packets the latest 10 day(s).

<< 33 34 35 36 37 38 >>
Time Temp. Humidity Pressure Rain* Wind** Luminosity Snow
1787814459 23.33° C 39% 1016 hPa - - - -
1787813559 23.33° C 38% 1015.9 hPa - - - -
1787812659 22.78° C 38% 1015.7 hPa - - - -
1787811758 22.22° C 38% 1015.5 hPa - - - -
1787810858 22.22° C 37% 1015.2 hPa - - - -
1787809958 22.22° C 38% 1015 hPa - - - -
1787809058 22.78° C 37% 1014.9 hPa - - - -
1787808156 22.78° C 38% 1014.8 hPa - - - -
1787807256 22.78° C 37% 1014.7 hPa - - - -
1787806356 22.78° C 36% 1014.6 hPa - - - -
1787805456 22.78° C 35% 1014.5 hPa - - - -
1787804556 22.78° C 35% 1014.6 hPa - - - -
1787803656 22.78° C 35% 1014.7 hPa - - - -
1787802755 22.78° C 34% 1014.7 hPa - - - -
1787801855 22.78° C 34% 1014.6 hPa - - - -
1787800954 22.78° C 34% 1014.7 hPa - - - -
1787799166 23.89° C 33% 1014.7 hPa - - - -
1787798266 24.44° C 33% 1014.7 hPa - - - -
1787797366 24.44° C 33% 1014.7 hPa - - - -
1787796466 24.44° C 32% 1014.7 hPa - - - -
1787795566 24.44° C 32% 1014.9 hPa - - - -
1787794666 24.44° C 32% 1014.9 hPa - - - -
1787793766 23.89° C 32% 1015 hPa - - - -
1787792866 23.89° C 32% 1015.1 hPa - - - -
1787791966 23.33° C 33% 1015.3 hPa - - - -

* Rain since midnight (hover to see other rain measurements)
** Current wind speed in m/s (hover to see current wind gust speed)